Current Version              Previous Version:    01  02  03  04  05  06  07  08  09  10  11  12  13  14  15  16  17  18  19  20  21  22  23  24  25  26  27  28  29  30  
   31  32  33  34  35  36  37  38  39  40  41  42  43  44  45  46  47  48  49  50  51  52  53  54  55  56  57  58  59  60  

[Printable]
619
ASUS44 KFWD 302303
RWRTX
NORTH TEXAS HOURLY WEATHER ROUNDUP
NATIONAL WEATHER SERVICE FORT WORTH TX
600 PM CDT THU OCT 30 2014

NOTE: "FAIR" INDICATES FEW OR NO CLOUDS BELOW 12,000 FEET WITH NO
SIGNIFICANT WEATHER AND/OR OBSTRUCTIONS TO VISIBILITY.

TXZ118-119-310000-
DALLAS/FORT WORTH METROPLEX

CITY           SKY/WX    TMP DP  RH WIND       PRES   REMARKS
DFW AIRPORT    MOCLDY    76  54  46 SE6       30.06F
DALLAS LOVE    LGT RAIN  70  60  70 E9        30.06F
FTW MEACHAM    CLOUDY    78  57  48 E8        30.05S
DAL-EXECUTIVE  CLOUDY    78  52  40 E7        30.06S
FTW-ALLIANCE   PTCLDY    73  56  54 NE8       30.06R
FTW-NAS-JRB    MOCLDY    80  55  42 E6        30.09S
FTW-SPINKS     PTCLDY    77  55  47 CALM      30.07S
ARLINGTON      CLOUDY    78  53  41 NE7       30.06S
MESQUITE       MOCLDY    66  63  88 CALM      30.07F
LANCASTER      MOCLDY    76  49  38 E8        30.07S
$$

TXZ091>094-102>105-117-120-121-131>134-310000-
NORTH CENTRAL TEXAS

CITY           SKY/WX    TMP DP  RH WIND       PRES   REMARKS
SHRMAN/DENISON CLEAR     74  56  51 W3        30.08F
GAINESVILLE    CLEAR     73  56  56 CALM      30.10S
BOWIE          CLEAR     73  57  59 N3        30.09S
BRIDGEPORT     PTCLDY    75  61  61 NE7       30.10R
DECATUR        CLEAR     72  58  62 NE6       30.09R
DENTON         CLOUDY    72  57  59 E3        30.07S
MCKINNEY       MOCLDY    72  53  51 W3        30.08S
GREENVILLE     MOCLDY    72  48  43 W3        30.08R
ROCKWALL       CLOUDY    69  57  65 W5        30.07S
TERRELL        CLOUDY    72  55  55 W12       30.08R
WAXAHACHIE     PTCLDY    77  55  46 CALM      30.08R
CLEBURNE       PTCLDY    75  57  53 SE6       30.08R
GRANBURY       MOCLDY    78  59  51 SE5       30.07R
$$

TXZ083>090-098>101-113>116-127>130-139>142-154-155-310000-
WESTERN NORTH TEXAS

CITY           SKY/WX    TMP DP  RH WIND       PRES   REMARKS
WICHITA FALLS  CLEAR     77  40  26 N18       30.10R
WF-KICKAPOO    CLEAR     78  40  26 N14G20    30.11R
VERNON         CLEAR     79  28  15 NE13      30.14R
ABILENE        CLEAR     81  58  45 N13       30.08R
ABILENE-DYESS  PTCLDY    80  60  50 NE14      30.07R
BRECKENRIDGE   PTCLDY    80  58  45 N10G16    30.07R HAZE
MINERAL WELLS  LGT RAIN  70  64  81 NE12      30.07R
STEPHENVILLE   CLOUDY    74  61  64 N10G21    30.10R
COMANCHE       PTCLDY    79  62  55 SE5       30.06F
COLEMAN        CLEAR     81  58  45 E3        30.07S
BRADY          CLOUDY    79  57  47 NE10      30.06S
$$

TXZ143>147-156>162-174-175-310000-
CENTRAL TEXAS

CITY           SKY/WX    TMP DP  RH WIND       PRES   REMARKS
WACO           CLEAR     73  53  49 E6        30.06F
WACO-MCGREGOR  CLEAR     75  52  43 SE9       30.08S
HILLSBORO      CLEAR     76  52  42 S5        30.07R
CORSICANA      CLEAR     75  50  41 SE3       30.08R
MEXIA          CLEAR     74  53  47 S3        30.06S
HEARNE         CLEAR     74  54  49 NE3       30.07S
CAMERON        CLEAR     77  55  45 E3        30.06S
TEMPLE         CLEAR     75  55  50 SE3       30.06S
KILLEEN        CLEAR     77  57  50 E7        30.06S
KILLEEN-SKYLRK CLEAR     77  55  47 E6        30.05F
GATESVILLE     CLEAR     77  57  50 E3        30.08S
HAMILTON       PTCLDY    79  59  50 SE12      30.07S
LAMPASAS       CLEAR     78  63  58 E3        30.06S
$$

TXZ095>097-106>112-122>126-135>138-148>153-164>167-310000-
EAST TEXAS

CITY           SKY/WX    TMP DP  RH WIND       PRES   REMARKS
PARIS          CLEAR     72  48  43 NW5       30.08S
SULPHUR SPRNGS PTCLDY    73  48  41 SW3       30.09S
MOUNT PLEASANT CLEAR     73  42  32 CALM      30.07F
MINEOLA        MOCLDY    70  52  52 CALM      30.08R
TYLER          CLEAR     72  47  40 S3        30.06F
LONGVIEW       CLEAR     72  44  36 CALM      30.05F
MARSHALL       CLEAR     73  53  48 CALM      30.08S
ATHENS         MOCLDY    70  50  49 CALM      30.06S
PALESTINE      CLEAR     74  47  38 CALM      30.08R
JACKSONVILLE   CLEAR     72  42  33 CALM      30.09S
HENDERSON      CLEAR     68  51  54 CALM      30.08S
NACOGDOCHES    CLEAR     72  46  40 CALM      30.07S
LUFKIN         CLEAR     76  48  37 CALM      30.06S
$$

SUPPLEMENTAL OBSERVATIONS (CENTRAL)

CITY           SKY/WX    TMP DP  RH WIND       PRES   REMARKS
$$

SUPPLEMENTAL OBSERVATIONS (WEST)

CITY           SKY/WX    TMP DP  RH WIND       PRES   REMARKS
$$

SUPPLEMENTAL OBSERVATIONS (EAST)

CITY           SKY/WX    TMP DP  RH WIND       PRES   REMARKS
$$

SUPPLEMENTAL OBSERVATIONS ARE A COLLECTION OF AUTOMATED INSTRUMENTS
THAT ARE MAINTAINED BY A VARIETY OF FEDERAL AND STATE AGENCIES.
CERTAIN ELEMENTS...SUCH AS HUMIDITY VALUES AND SUSTAINED WIND
SPEEDS...MAY BE APPROXIMATED.